Location: Unspecified
(47.3532°N, 122.5883°W)
Time: 05:36:48
(UTC-07:00)

CZ-3 Stage 3 - Visible Passes

Search period start: 21 June 2018 00:00
Search period end: 01 July 2018 00:00
Orbit: 406 x 34789 km, 30.8° (Epoch: 20 June)

Date Brightness Start Highest point End Pass type
(mag) Time Alt. Az. Time Alt. Az. Time Alt. Az.
21 Jun 8.7 22:10:23 10° ESE 02:49:25 43° SE 03:52:42 10° E visible
23 Jun 6.5 03:14:33 10° SW 05:05:05 15° SW 10:59:31 10° SSE visible
23 Jun 8.0 23:04:27 10° SSE 07:01:31 60° S 07:24:57 10° ESE visible
24 Jun 8.7 21:55:19 10° ESE 02:38:28 43° SE 03:42:57 10° E visible
26 Jun 6.5 02:59:34 10° SW 04:54:04 16° SW 10:49:42 10° SSE visible
26 Jun 8.0 22:51:33 10° SSE 06:51:18 60° S 07:15:11 10° ESE visible
27 Jun 8.6 21:40:18 10° ESE 02:27:27 44° SE 03:33:10 10° E visible
29 Jun 6.5 02:44:57 10° SW 04:43:02 17° SW 10:39:51 10° SSE visible
29 Jun 7.9 22:38:45 10° SSE 06:41:02 61° S 07:05:22 10° ESE visible
